GFSSW_prec_cthk_114.txt.gz
RH
53 49 45 41 42 43 40 36 31 27 23 19 17 14 10 10 8 8 7 9 11 15 15 21 22 24 26 29 29 29 29 30 32 31 31 31 29 29 31 30 29 29 28 28 29
54 49 40 34 31 32 33 27 20 15 12 10 10 10 8 10 6 5 8 15 16 16 22 26 28 26 23 26 27 28 28 25 27 28 28 29 29 30 31 31 29 28 27 29 30
55 49 38 32 27 25 22 17 13 12 11 10 10 10 10 10 9 14 16 15 16 18 22 23 22 19 16 19 23 24 23 24 23 26 27 24 24 26 25 27 28 27 25 24 25
51 43 30 23 21 17 15 13 13 12 11 11 14 13 10 11 12 16 15 16 18 19 21 19 19 19 20 19 19 22 20 22 22 23 23 23 23 21 24 22 23 25 27 27 26
40 29 20 16 14 13 12 12 12 13 15 16 17 14 14 16 10 10 16 17 14 14 21 24 23 21 21 20 20 22 20 20 22 23 23 22 20 22 22 24 24 24 26 28 31
28 19 15 14 12 12 12 12 12 17 17 22 18 21 22 23 14 16 18 17 20 20 22 24 20 22 25 24 24 23 22 21 20 22 21 20 17 20 20 21 18 21 21 22 24
21 19 19 15 14 13 12 13 17 22 20 20 21 24 27 16 15 16 19 20 21 22 22 23 23 26 27 27 25 24 24 22 21 19 22 20 15 18 17 20 20 20 21 23 22
21 18 18 18 19 16 14 18 22 20 15 22 24 30 27 15 18 16 18 19 23 24 24 25 27 28 29 28 25 25 24 26 21 20 18 22 20 23 25 26 26 29 27 26 26
31 35 29 24 24 22 23 21 18 15 18 23 27 36 28 19 19 19 19 19 20 24 24 28 30 31 31 30 35 30 34 28 27 24 27 30 25 25 26 27 28 31 31 31 33
27 28 30 28 26 25 17 25 23 22 24 28 36 38 28 25 22 25 23 22 25 27 29 29 31 33 31 33 40 32 33 28 30 29 30 33 25 19 21 24 27 25 31 39 45
25 26 20 17 18 19 22 22 25 32 33 24 26 28 23 26 32 33 28 28 30 31 33 34 39 38 27 28 27 29 33 33 31 32 33 36 27 25 23 26 22 18 24 50 57
21 20 18 19 18 25 32 30 29 35 38 31 27 32 27 27 35 36 33 32 32 33 34 38 40 31 32 33 35 38 42 38 28 31 38 37 32 27 21 25 23 19 22 67 79
19 19 20 26 29 39 34 34 37 44 46 39 31 31 30 27 30 33 33 33 35 39 36 36 31 31 36 39 40 41 42 40 40 41 41 48 39 25 23 23 26 26 24 56 67
20 21 20 29 36 37 39 38 43 52 51 36 35 30 31 33 33 25 31 34 39 38 37 42 38 35 36 40 42 46 48 51 53 54 54 55 61 23 25 27 34 40 39 52 66
23 23 26 32 41 41 40 42 51 52 39 27 31 33 33 32 32 31 29 34 35 33 35 37 37 40 47 43 47 50 53 56 59 62 65 52 70 28 31 38 50 59 58 62 70
28 29 32 33 40 38 47 49 56 56 52 28 33 38 41 35 35 33 35 38 33 39 43 40 38 41 44 51 56 59 61 63 65 68 71 48 60 41 46 56 72 79 82 76 74
28 27 28 28 35 39 52 54 70 64 30 29 31 38 37 38 41 42 42 44 43 51 49 41 40 43 49 59 61 66 74 82 77 73 63 50 60 54 77 78 80 84 89 95 90
32 28 27 28 31 47 59 70 71 40 33 28 31 36 41 42 43 48 47 49 46 43 50 58 52 47 49 56 66 72 72 82 84 76 69 55 67 78 79 84 89 93 98 92 98
42 37 39 42 40 56 61 82 57 43 37 36 31 38 39 41 42 46 50 48 46 49 58 64 61 54 58 63 67 76 79 74 85 81 80 60 68 80 88 92 97 98 98 99 98
47 43 41 40 50 72 80 92 60 43 39 49 55 45 40 36 47 49 54 54 53 51 57 64 68 64 64 69 69 76 76 88 89 90 86 68 83 87 90 98 97 98 97 97 98
48 44 37 42 48 74 89 68 60 47 46 49 51 59 52 48 49 59 61 56 59 58 61 75 80 71 69 73 73 85 81 84 86 90 88 85 86 91 95 96 96 98 96 96 95
58 54 42 52 69 75 73 54 49 50 57 60 59 57 61 66 68 69 69 61 57 58 77 81 83 81 69 76 72 73 74 82 94 89 93 88 96 89 92 96 88 86 91 89 85
67 66 62 62 57 55 57 65 62 62 63 52 62 66 76 72 77 68 71 67 65 73 80 72 83 84 95 83 75 74 72 74 82 94 93 90 88 90 91 89 83 80 78 77 75
76 76 76 74 60 64 73 82 84 69 56 61 71 76 75 63 68 75 69 70 80 76 66 69 81 88 90 83 77 74 72 75 83 96 83 75 85 87 88 85 83 80 76 72 70
80 79 64 76 70 67 60 57 60 62 70 77 85 82 62 71 78 79 78 79 73 64 57 63 76 84 82 77 76 72 62 65 77 79 80 68 81 85 84 82 82 81 77 72 67
75 74 83 87 84 85 87 73 65 66 67 89 73 74 78 68 66 79 85 87 75 55 63 69 89 92 93 81 71 64 63 59 63 68 77 73 80 78 80 80 81 78 71 61 57
71 75 98 87 91 93 73 66 67 75 71 59 68 86 85 70 70 64 62 64 61 64 77 83 92 96 95 91 89 79 61 69 69 71 74 75 70 74 81 77 69 63 61 59 55

GFSSW_prec_cthk_117.txt.gz
RH
48 49 47 46 42 37 32 30 30 30 25 19 13 8 7 6 6 6 6 6 8 12 14 18 19 19 21 21 23 25 26 28 29 30 33 35 32 31 30 30 30 29 28 28 30
51 49 50 49 44 38 29 26 24 23 17 12 9 8 8 8 6 6 9 10 14 17 19 22 22 22 21 21 22 24 25 25 23 23 23 29 32 32 31 31 30 29 29 29 29
54 51 49 47 45 37 27 22 18 16 12 10 10 10 9 8 7 12 15 14 16 16 19 21 21 21 19 16 16 18 19 19 19 20 21 21 24 27 26 27 25 24 25 25 25
58 54 49 43 42 31 21 17 14 12 11 11 11 11 11 11 11 15 12 14 16 17 19 20 18 17 17 18 20 21 20 20 19 19 19 19 18 17 22 22 24 26 27 27 28
56 51 45 39 36 23 15 13 13 12 12 11 11 13 13 18 13 11 11 13 17 20 21 20 21 21 23 22 23 24 22 22 21 19 18 17 17 17 15 14 19 22 24 25 27
51 44 38 36 27 18 13 12 13 12 12 12 13 18 17 23 13 13 11 12 14 16 22 26 26 26 24 24 25 24 24 22 20 17 16 16 14 15 12 11 13 16 19 22 25
47 40 32 27 21 19 17 17 15 14 15 14 21 26 24 15 12 12 14 15 18 23 24 24 25 26 27 26 25 26 27 26 20 17 17 16 17 14 16 18 19 19 20 21 23
36 33 30 26 23 20 19 19 18 18 18 25 30 30 23 14 11 12 14 15 16 20 24 24 30 29 29 25 27 28 28 31 23 19 19 22 24 18 20 21 20 22 24 23 21
31 28 26 25 23 21 22 20 19 22 30 33 31 31 24 16 14 17 17 17 16 19 26 29 35 34 29 30 35 33 37 32 28 22 23 22 23 23 22 20 19 17 15 16 17
35 38 38 28 29 30 33 34 31 33 34 30 35 33 22 17 20 19 20 21 23 23 30 33 37 37 33 37 43 36 38 36 34 26 26 28 23 21 24 23 23 20 20 19 17
36 32 27 28 29 31 29 35 35 37 37 30 29 26 23 24 26 23 23 26 33 33 36 35 38 39 30 34 34 33 35 38 34 32 33 29 25 22 27 26 23 20 22 22 24
28 25 25 22 23 27 33 29 26 31 30 23 23 27 21 26 28 28 30 34 35 37 36 40 44 34 34 37 40 38 40 40 40 37 37 34 28 25 28 26 23 21 25 28 32
25 24 25 25 24 23 25 24 33 40 39 31 27 33 31 29 34 30 35 35 35 36 37 42 37 33 40 42 43 41 45 44 43 45 42 43 33 23 25 26 25 26 29 34 40
26 24 23 24 26 25 26 29 39 42 47 33 37 36 37 39 38 27 33 35 37 35 38 45 38 35 39 44 43 49 42 47 48 49 56 51 54 28 31 37 40 44 46 50 56
26 24 21 22 28 26 30 33 41 44 34 30 37 36 39 36 34 36 31 39 38 38 40 40 37 41 41 36 42 45 49 53 53 58 61 59 62 40 42 49 54 57 61 67 70
29 26 27 24 28 24 34 38 44 48 35 32 39 42 43 38 38 39 37 38 40 44 45 43 42 45 46 48 49 53 57 60 67 68 71 53 56 51 58 59 60 64 69 75 81
33 32 34 33 30 34 46 55 61 56 30 34 40 43 40 40 40 39 42 40 44 53 52 43 45 43 47 55 59 60 66 85 78 75 67 56 64 66 65 64 64 69 75 83 92
33 33 34 34 35 45 61 70 69 41 36 38 37 41 43 42 43 46 49 52 46 42 48 53 50 48 46 48 58 64 69 79 80 76 71 66 67 72 69 71 71 76 83 88 94
42 37 38 39 38 45 64 83 55 40 36 31 29 37 42 43 45 52 53 50 45 45 51 58 56 49 54 57 63 73 78 73 87 87 88 69 78 78 79 79 82 85 89 90 95
49 47 43 44 43 54 79 75 55 43 41 44 41 38 38 39 51 56 56 50 49 50 53 56 65 58 62 65 71 69 76 88 91 89 90 72 75 80 83 87 89 95 98 98 96
73 71 58 55 63 72 90 77 59 51 51 53 57 58 50 46 44 45 53 52 50 52 59 64 72 67 71 71 75 78 84 84 84 89 89 89 77 75 82 88 92 94 93 92 90
65 67 58 60 70 88 86 70 63 56 57 61 62 57 57 50 48 53 54 57 60 63 69 65 84 86 82 80 76 73 68 86 87 89 87 88 77 75 78 84 89 87 85 82 79
78 73 64 58 65 68 62 68 68 57 63 69 57 55 56 55 65 55 53 57 67 72 76 75 86 89 85 80 75 80 77 84 85 84 87 92 76 82 81 83 84 84 83 79 72
74 72 72 71 70 59 65 67 69 56 60 65 54 56 57 61 60 62 62 68 70 69 72 78 89 87 82 76 66 75 87 85 86 94 82 84 81 86 88 79 81 83 82 77 71
80 77 67 75 67 60 63 60 72 67 65 64 54 59 67 73 64 71 78 82 74 65 74 77 92 92 81 71 70 80 93 91 87 76 87 76 86 83 82 79 85 87 85 80 72
88 80 76 68 67 75 79 60 55 49 57 66 76 73 82 76 72 78 81 76 80 79 82 81 86 86 75 68 69 77 79 61 65 78 83 85 91 86 82 82 87 89 88 81 68
78 85 79 73 73 76 66 60 61 70 63 65 76 80 74 57 79 81 82 74 76 81 89 89 89 88 74 75 91 95 69 69 74 79 83 87 80 85 84 82 85 85 83 74 65

GFSSW_prec_cthk_120.txt.gz
RH
43 42 43 42 45 43 41 37 32 25 21 20 21 14 7 7 7 6 6 7 9 10 12 14 17 21 19 18 19 20 24 26 23 24 27 31 33 34 34 32 33 32 32 30 29
51 52 49 46 46 44 42 40 34 25 18 17 15 9 7 7 7 8 12 10 12 14 15 19 21 21 22 20 19 19 22 22 20 19 19 21 27 33 37 37 34 33 35 34 33
57 56 55 51 48 45 40 37 34 22 16 14 11 9 8 9 8 11 15 15 16 16 16 18 19 21 21 20 18 16 18 17 17 17 18 18 16 20 24 29 33 33 33 32 28
57 57 55 53 50 45 39 34 31 19 13 11 10 10 10 10 10 14 15 15 16 17 15 15 18 17 19 20 20 19 19 19 19 19 19 18 18 16 15 14 18 27 28 27 26
60 57 54 53 49 44 37 32 26 16 12 11 10 11 11 13 10 10 13 15 16 17 16 18 18 18 22 25 25 25 23 23 23 21 20 19 17 16 14 12 13 14 16 18 20
63 60 55 53 47 40 33 31 25 17 14 12 11 11 13 18 11 12 13 15 16 17 17 19 21 26 26 26 27 25 25 23 21 19 18 18 16 15 12 15 16 16 15 15 15
60 58 55 51 48 43 33 31 23 18 15 15 16 17 17 14 15 16 16 16 16 15 17 22 25 26 25 24 26 30 29 25 20 19 18 19 17 18 21 18 16 15 13 13 14
55 52 48 44 40 34 34 30 25 22 21 21 22 25 19 17 17 15 16 17 16 15 21 25 26 27 26 26 29 29 31 31 21 22 20 24 26 21 21 21 18 16 13 13 14
47 44 37 34 31 30 30 29 26 23 27 31 28 29 20 20 21 20 20 19 17 16 21 28 31 32 28 30 35 36 34 33 28 22 25 27 31 27 25 22 22 20 18 18 17
48 41 38 35 29 28 28 29 27 32 34 33 31 31 24 23 24 23 21 19 19 20 24 32 35 37 34 38 37 38 41 37 35 26 26 30 30 29 27 25 24 21 20 20 21
43 41 39 35 34 30 35 39 33 39 38 29 30 30 29 28 26 23 22 22 26 25 32 33 39 42 34 33 37 38 38 40 36 32 37 33 33 34 29 27 26 24 23 24 28
44 40 38 37 34 34 32 37 39 42 42 33 30 29 26 25 23 25 27 29 33 36 37 40 45 35 34 37 41 43 47 46 41 37 39 35 36 35 32 38 39 36 30 33 37
44 40 37 33 33 30 27 28 34 37 37 30 26 25 24 23 26 24 33 35 37 40 41 43 36 32 37 40 42 45 48 46 49 44 41 42 39 38 39 40 41 43 45 44 45
43 39 36 33 33 29 29 29 36 34 37 26 31 32 32 34 35 30 30 37 41 42 42 43 36 36 40 40 40 50 41 47 48 52 57 49 55 44 48 48 49 51 50 50 52
41 39 38 33 33 30 34 32 36 36 30 25 32 34 38 36 37 41 35 38 42 41 40 39 39 39 42 38 42 45 43 48 55 61 63 61 63 44 51 53 57 55 56 56 58
52 45 37 35 29 26 37 41 40 36 24 32 38 40 44 41 43 45 39 38 40 44 44 41 41 42 42 43 46 51 53 55 64 68 71 56 59 46 54 59 63 63 62 61 62
52 47 40 38 25 34 42 47 48 43 20 30 40 43 44 46 45 46 42 42 45 53 51 45 44 43 43 47 50 51 57 74 74 74 70 57 64 57 61 62 64 63 65 63 66
61 56 44 40 31 43 54 63 57 27 26 33 38 44 49 47 46 48 48 48 45 43 53 54 48 45 44 45 52 59 67 73 78 75 67 68 73 63 66 65 66 69 69 70 71
56 53 52 44 35 46 64 83 52 39 38 33 39 48 51 46 44 47 52 48 42 44 48 56 54 50 53 55 60 73 74 74 92 89 90 72 73 72 69 70 72 75 78 81 81
57 48 43 38 41 47 72 74 57 50 53 50 41 35 36 40 49 51 52 47 48 46 46 52 59 55 58 61 69 70 74 88 95 95 90 73 69 68 72 75 76 77 80 84 86
66 63 52 51 54 59 77 62 50 50 52 53 55 52 49 46 46 52 51 47 49 50 51 57 60 60 65 67 68 78 83 84 87 89 87 84 70 64 70 76 79 81 83 85 82
78 72 57 54 79 84 77 58 55 54 60 62 63 60 59 58 58 61 58 53 51 50 57 55 68 67 65 68 75 77 84 90 96 88 82 83 74 69 72 78 80 81 79 80 79
96 92 86 88 93 93 86 69 64 63 67 74 69 65 61 62 65 61 56 53 55 58 64 73 95 96 93 88 90 85 73 78 80 80 77 94 75 75 78 79 84 85 81 80 79
95 98 92 93 93 84 87 85 81 74 80 80 73 71 69 65 64 63 53 53 54 54 61 77 84 79 77 76 81 89 80 76 77 87 88 86 86 83 81 83 84 84 83 81 81
86 88 89 96 91 84 76 69 69 71 68 72 77 71 70 77 73 59 55 58 58 59 66 71 84 91 84 83 87 86 83 74 79 68 83 87 85 80 80 83 84 88 84 84 85
92 92 76 71 75 86 85 82 76 69 73 73 68 63 67 72 69 56 57 63 62 66 76 83 88 90 82 83 86 90 77 74 76 72 93 95 82 77 83 88 91 90 87 87 86
93 93 82 78 74 81 75 60 54 63 60 56 60 75 81 66 72 65 72 79 77 88 86 92 95 95 90 84 88 91 61 62 58 58 61 76 75 85 88 89 91 89 88 89 82

GFSSW_prec_cthk_123.txt.gz
RH
48 47 42 41 40 39 39 38 39 35 32 28 20 15 14 10 6 5 6 6 7 10 11 12 15 18 17 17 17 17 20 19 18 19 21 22 27 34 37 34 34 33 32 32 31
55 53 52 49 47 45 44 40 39 35 31 28 18 13 12 8 6 6 8 11 9 9 11 17 22 24 19 19 19 19 19 18 18 19 19 20 21 21 24 29 33 33 33 32 31
58 56 54 51 50 49 46 43 38 35 29 27 18 11 10 8 7 9 14 13 14 15 16 20 23 24 21 20 19 20 19 16 16 17 20 19 19 18 15 15 20 26 28 29 29
58 56 55 54 52 47 45 42 40 33 28 25 18 11 9 8 8 12 14 16 15 15 17 19 21 22 18 16 18 20 20 20 20 20 21 21 20 18 15 13 12 12 14 21 26
60 57 57 56 54 50 46 42 38 32 28 26 18 12 10 11 9 9 12 13 15 16 19 19 21 20 16 18 20 22 23 24 24 23 22 22 20 19 16 15 15 14 13 13 13
63 61 60 58 55 52 45 43 39 31 27 24 18 15 15 16 10 10 11 13 18 19 21 21 22 20 21 24 23 22 24 24 22 22 21 20 17 18 19 20 20 19 20 17 15
65 62 60 56 54 52 47 44 38 36 28 28 23 20 17 15 13 14 15 17 18 18 19 19 22 24 23 24 25 26 26 23 21 21 23 23 19 21 22 23 22 19 18 19 19
64 65 60 55 48 47 43 40 34 33 30 29 27 25 22 17 17 17 17 19 20 20 23 25 26 24 25 25 27 26 27 22 21 23 25 24 24 23 24 23 19 18 18 19 22
68 64 58 51 49 45 38 35 31 29 29 28 28 25 22 20 19 19 18 20 20 19 23 29 30 30 27 27 27 29 23 31 25 24 26 28 29 25 24 26 25 23 21 22 24
64 59 59 51 47 42 39 36 33 32 32 30 31 28 22 22 24 23 23 24 26 24 26 32 33 31 30 30 21 23 31 35 32 28 30 30 30 30 29 31 29 28 27 28 28
68 61 59 55 51 44 40 39 36 38 37 26 27 28 30 30 26 26 29 29 26 25 29 34 36 32 29 31 30 31 34 37 35 32 37 34 36 33 34 37 35 34 34 35 35
74 66 62 53 47 44 41 39 41 44 40 33 29 29 31 31 29 32 32 29 31 31 34 37 41 34 35 38 38 38 40 38 37 35 38 38 37 40 43 45 44 42 41 42 42
66 58 54 51 48 43 43 45 47 44 42 30 29 30 31 29 31 26 29 30 30 34 37 37 33 33 37 40 40 42 41 40 42 41 39 40 40 47 47 49 48 46 46 46 46
66 58 56 51 54 49 43 41 45 42 40 27 32 31 29 29 28 22 24 29 37 40 43 42 38 39 39 38 39 45 38 40 43 44 46 44 49 46 52 50 49 50 50 51 49
71 67 59 54 47 49 48 39 44 43 34 29 37 37 39 31 32 32 28 36 41 41 40 38 39 41 43 39 41 42 41 43 46 51 52 51 53 50 50 49 55 53 53 53 53
73 63 62 55 49 50 53 50 44 41 31 35 41 41 44 40 41 41 39 37 40 45 43 40 40 39 39 41 43 46 50 52 54 55 57 46 48 46 49 50 54 56 56 56 57
79 69 58 52 43 50 54 57 53 48 25 34 40 44 43 43 45 42 42 44 43 50 50 46 43 41 41 45 49 49 55 59 64 68 56 51 56 41 50 53 55 57 60 60 62
89 84 77 62 51 56 69 64 59 31 30 35 42 46 43 41 40 46 44 48 46 46 51 49 43 44 42 41 46 53 53 58 63 66 56 59 56 46 53 57 58 62 66 67 66
86 83 79 74 60 59 70 79 52 40 33 28 42 45 46 44 43 46 48 47 45 43 41 49 48 47 48 49 51 61 63 59 71 76 80 60 53 57 58 62 62 68 71 71 73
73 71 67 79 65 68 82 71 57 44 43 37 30 31 38 42 47 51 55 48 45 42 43 49 54 53 57 58 60 59 63 78 87 83 80 59 56 52 61 64 64 69 74 76 79
81 80 66 64 73 82 86 63 52 54 52 52 47 47 46 46 54 56 53 49 49 49 50 57 59 63 66 62 57 66 71 74 79 88 77 66 53 54 57 54 67 72 76 77 78
92 83 69 62 72 74 77 58 57 56 57 60 61 61 58 61 63 59 57 56 56 56 63 61 65 67 61 62 60 65 67 73 90 94 94 95 57 55 54 60 78 77 79 80 78
89 89 84 83 82 76 56 50 59 61 64 64 61 60 61 63 68 69 68 67 63 63 71 70 81 77 73 80 83 80 80 82 90 94 82 94 60 59 59 77 83 83 85 83 81
99 97 95 93 93 85 73 66 68 63 67 69 71 68 68 69 71 71 69 68 67 67 71 72 76 78 79 88 86 92 81 80 85 90 84 72 62 63 63 76 91 86 87 86 84
98 98 92 97 94 86 86 75 77 76 78 73 71 75 75 78 77 73 70 65 60 61 65 65 68 71 66 69 78 79 73 77 83 80 89 56 62 60 63 85 94 91 90 87 88
97 97 89 86 88 91 90 85 78 78 86 88 83 80 81 81 70 69 76 76 74 75 68 68 72 77 69 68 78 81 75 78 78 71 73 72 64 63 77 89 91 91 89 93 89
91 92 94 86 86 91 88 73 70 78 78 77 81 86 84 71 73 73 79 76 69 71 72 71 75 78 72 71 87 92 61 67 68 63 60 66 54 66 73 77 89 92 93 93 88

GFSSW_prec_cthk_126.txt.gz
RH
42 43 44 42 39 37 35 36 35 33 32 29 27 25 21 12 11 7 6 6 6 6 6 8 10 13 14 17 19 18 18 18 19 18 18 18 19 22 26 30 32 32 33 33 31
49 50 50 49 46 45 43 42 40 36 34 30 27 24 21 11 9 6 7 8 9 8 9 12 14 18 19 19 20 17 17 19 17 17 18 18 18 18 17 20 26 27 27 28 31
54 54 54 51 49 48 46 44 42 39 35 32 27 23 20 11 9 9 12 11 11 12 14 16 19 20 21 20 20 18 17 19 19 18 18 18 17 18 16 15 15 19 22 23 23
56 55 54 52 50 50 49 47 42 39 35 31 26 23 19 11 9 10 12 15 14 13 15 17 19 21 20 19 20 18 16 16 19 21 21 18 19 17 16 15 15 15 14 15 18
62 60 60 55 51 50 49 47 44 38 36 32 25 23 21 17 11 8 9 12 14 15 15 17 20 20 18 19 20 19 18 20 21 20 21 22 20 17 16 18 17 16 17 17 18
70 63 63 60 58 56 53 49 44 39 38 34 29 24 23 20 12 10 11 13 14 17 17 19 23 21 20 22 21 24 21 20 19 18 20 20 18 19 21 19 21 20 20 21 23
82 72 68 65 60 57 53 49 43 38 36 35 32 26 26 24 19 17 15 15 16 18 20 20 22 21 24 26 25 24 22 19 18 19 20 19 19 21 23 25 23 23 22 24 23
93 88 81 72 62 55 50 46 42 36 32 31 28 28 27 22 20 20 20 20 19 20 22 23 24 24 25 26 28 26 24 19 22 20 23 19 17 23 22 25 24 24 25 27 28
89 86 86 79 69 53 50 48 46 41 34 30 31 31 30 24 22 20 20 21 21 22 25 27 27 27 26 27 29 29 19 21 20 19 23 21 23 23 23 25 26 27 31 32 34
88 78 77 72 69 62 57 52 48 42 38 34 37 32 25 26 27 24 23 23 25 24 29 30 31 29 29 31 22 20 23 26 19 26 26 25 25 27 28 30 31 33 33 34 35
89 86 77 72 66 60 55 55 56 53 47 35 35 30 30 30 27 29 29 28 26 26 27 34 32 27 27 29 27 26 25 24 27 30 33 28 28 28 31 34 37 35 36 38 37
92 90 84 76 64 60 58 59 54 57 47 38 34 35 29 31 31 32 33 32 30 27 33 38 33 29 33 32 31 31 30 31 32 34 34 30 29 34 37 39 39 38 39 41 40
91 90 86 79 73 65 60 59 50 51 50 41 36 36 35 32 27 29 34 34 32 33 35 29 33 29 33 32 32 35 35 33 35 35 32 35 27 41 42 40 40 41 41 40 40
85 84 79 72 69 68 64 51 47 50 50 39 44 42 37 34 33 31 34 34 36 30 34 32 30 33 34 34 35 33 35 35 36 37 35 42 28 35 45 44 40 40 42 42 41
85 81 74 67 65 62 55 51 55 51 54 44 45 46 47 31 33 29 30 36 32 33 32 31 38 38 39 35 36 33 36 39 38 40 42 36 44 31 41 42 42 41 44 46 47
81 79 79 73 67 65 60 56 64 62 49 47 49 48 46 40 40 39 30 33 31 38 35 35 38 37 38 39 39 39 40 43 43 43 41 34 38 26 41 38 42 43 47 48 50
74 81 75 79 73 75 71 71 67 60 39 47 49 51 45 43 46 42 36 34 34 43 43 39 42 42 40 42 43 42 44 46 44 51 39 43 40 32 40 40 44 46 47 52 53
68 67 79 73 71 79 80 82 68 37 38 43 46 50 48 43 48 46 43 42 41 40 37 42 45 41 40 38 41 44 45 44 43 40 43 50 43 40 41 45 47 48 51 56 57
82 78 72 82 70 78 90 94 53 42 36 41 52 51 50 49 46 48 45 41 39 39 35 38 37 41 41 40 42 52 51 44 52 52 61 41 38 48 51 51 50 51 54 60 62
98 90 85 78 79 83 95 82 59 49 44 38 44 45 46 48 46 47 46 42 39 38 37 40 41 44 49 48 50 51 53 64 65 67 65 44 41 46 57 54 54 55 59 65 65
98 99 95 93 90 95 95 64 63 65 57 50 41 39 38 46 48 46 44 44 40 40 42 46 46 59 59 56 56 59 61 60 61 65 66 54 46 54 55 51 56 55 62 73 72
98 98 97 93 98 94 86 59 66 66 62 60 57 49 44 45 44 47 47 48 51 50 54 52 57 57 62 58 59 63 62 62 78 74 73 76 55 55 53 56 56 56 67 77 78
98 99 99 89 89 84 64 78 78 73 66 64 61 59 61 60 59 61 63 64 66 65 68 66 70 71 67 72 73 62 61 62 73 74 76 89 66 65 60 60 59 61 63 80 84
99 98 98 98 83 71 63 67 76 83 81 77 75 69 62 64 67 68 69 72 76 76 77 76 71 77 71 72 85 92 85 82 83 94 79 70 67 59 71 64 60 60 66 83 89
94 97 94 89 90 75 68 62 61 71 72 77 76 71 71 71 69 70 67 69 71 73 79 83 75 72 65 66 70 79 77 76 78 81 87 65 69 47 62 61 63 62 75 91 93
97 95 96 93 83 84 85 80 68 65 69 62 64 60 63 66 64 65 74 77 76 76 72 73 67 65 59 61 62 61 55 53 63 63 70 67 52 54 54 62 59 67 79 84 88
97 93 90 94 93 95 84 69 65 81 87 77 80 84 86 75 75 79 81 85 84 84 83 85 83 82 73 64 69 78 51 52 47 57 59 60 47 50 57 57 61 69 73 81 86